Year,Month,Day,Hour,Minute,Value (Times are PST for temperature in C)
2009,09,03,00,00,15.50
2009,09,03,00,01,15.50
2009,09,03,00,02,15.50
2009,09,03,00,03,15.50
2009,09,03,00,04,15.50
2009,09,03,00,05,15.50
2009,09,03,00,06,15.50
2009,09,03,00,07,15.50
2009,09,03,00,08,15.50
2009,09,03,00,09,15.50
2009,09,03,00,10,15.50
2009,09,03,00,11,15.50
2009,09,03,00,12,15.50
2009,09,03,00,13,15.50
2009,09,03,00,14,15.50
2009,09,03,00,15,15.50
2009,09,03,00,16,15.50
2009,09,03,00,17,15.50
2009,09,03,00,18,15.50
2009,09,03,00,19,15.50
2009,09,03,00,20,15.50
2009,09,03,00,21,15.50
2009,09,03,00,22,15.50
2009,09,03,00,23,15.50
2009,09,03,00,24,15.50
2009,09,03,00,25,15.50
2009,09,03,00,26,15.50
2009,09,03,00,27,15.50
2009,09,03,00,28,15.50
2009,09,03,00,29,15.50
2009,09,03,00,30,15.50
2009,09,03,00,31,15.50
2009,09,03,00,32,15.50
2009,09,03,00,33,15.50
2009,09,03,00,34,15.50
2009,09,03,00,35,15.50
2009,09,03,00,36,15.40
2009,09,03,00,37,15.40
2009,09,03,00,38,15.40
2009,09,03,00,39,15.40
2009,09,03,00,40,15.40
2009,09,03,00,41,15.40
2009,09,03,00,42,15.40
2009,09,03,00,43,15.40
2009,09,03,00,44,15.40
2009,09,03,00,45,15.40
2009,09,03,00,46,15.40
2009,09,03,00,47,15.40
2009,09,03,00,48,15.40
2009,09,03,00,49,15.40
2009,09,03,00,50,15.40
2009,09,03,00,51,15.40
2009,09,03,00,52,15.40
2009,09,03,00,53,15.40
2009,09,03,00,54,15.40
2009,09,03,00,55,15.40
2009,09,03,00,56,15.40
2009,09,03,00,57,15.40
2009,09,03,00,58,15.40
2009,09,03,00,59,15.40
2009,09,03,01,00,15.40
2009,09,03,01,01,15.40
2009,09,03,01,02,15.40
2009,09,03,01,03,15.40
2009,09,03,01,04,15.40
2009,09,03,01,05,15.40
2009,09,03,01,06,15.40
2009,09,03,01,07,15.40
2009,09,03,01,08,15.40
2009,09,03,01,09,15.40
2009,09,03,01,10,15.40
2009,09,03,01,11,15.40
2009,09,03,01,12,15.40
2009,09,03,01,13,15.40
2009,09,03,01,14,15.40
2009,09,03,01,15,15.40
2009,09,03,01,16,15.40
2009,09,03,01,17,15.40
2009,09,03,01,18,15.40
2009,09,03,01,19,15.40
2009,09,03,01,20,15.40
2009,09,03,01,21,15.40
2009,09,03,01,22,15.30
2009,09,03,01,23,15.30
2009,09,03,01,24,15.30
2009,09,03,01,25,15.30
2009,09,03,01,26,15.30
2009,09,03,01,27,15.30
2009,09,03,01,28,15.30
2009,09,03,01,29,15.30
2009,09,03,01,30,15.30
2009,09,03,01,31,15.30
2009,09,03,01,32,15.30
2009,09,03,01,33,15.30
2009,09,03,01,34,15.30
2009,09,03,01,35,15.30
2009,09,03,01,36,15.30
2009,09,03,01,37,15.30
2009,09,03,01,38,15.30
2009,09,03,01,39,15.30
2009,09,03,01,40,15.30
2009,09,03,01,41,15.30
2009,09,03,01,42,15.40
2009,09,03,01,43,15.40
2009,09,03,01,44,15.40
2009,09,03,01,49,15.40
2009,09,03,01,50,15.40
2009,09,03,01,51,15.40
2009,09,03,01,52,15.40
2009,09,03,01,53,15.40
2009,09,03,01,54,15.40
2009,09,03,01,55,15.40
2009,09,03,01,56,15.40
2009,09,03,01,57,15.50
2009,09,03,01,58,15.50
2009,09,03,01,59,15.50
2009,09,03,02,00,15.60
2009,09,03,02,01,15.60
2009,09,03,02,02,15.60
2009,09,03,02,03,15.60
2009,09,03,02,04,15.60
2009,09,03,02,05,15.60
2009,09,03,02,06,15.60
2009,09,03,02,07,15.70
2009,09,03,02,08,15.70
2009,09,03,02,09,15.70
2009,09,03,02,10,15.70
2009,09,03,02,11,15.70
2009,09,03,02,12,15.70
2009,09,03,02,13,15.70
2009,09,03,02,14,15.70
2009,09,03,02,15,15.70
2009,09,03,02,16,15.70
2009,09,03,02,17,15.70
2009,09,03,02,18,15.80
2009,09,03,02,19,15.80
2009,09,03,02,20,15.80
2009,09,03,02,21,15.80
2009,09,03,02,22,15.80
2009,09,03,02,23,15.80
2009,09,03,02,24,15.80
2009,09,03,02,25,15.80
2009,09,03,02,26,15.80
2009,09,03,02,27,15.80
2009,09,03,02,28,15.80
2009,09,03,02,29,15.80
2009,09,03,02,30,15.80
2009,09,03,02,31,15.70
2009,09,03,02,32,15.70
2009,09,03,02,33,15.70
2009,09,03,02,34,15.70
2009,09,03,02,35,15.70
2009,09,03,02,36,15.70
2009,09,03,02,37,15.70
2009,09,03,02,38,15.70
2009,09,03,02,39,15.70
2009,09,03,02,40,15.60
2009,09,03,02,41,15.60
2009,09,03,02,42,15.60
2009,09,03,02,43,15.60
2009,09,03,02,44,15.60
2009,09,03,02,45,15.60
2009,09,03,02,46,15.60
2009,09,03,02,47,15.60
2009,09,03,02,48,15.60
2009,09,03,02,49,15.60
2009,09,03,02,50,15.50
2009,09,03,02,51,15.50
2009,09,03,02,52,15.60
2009,09,03,02,53,15.60
2009,09,03,02,54,15.60
2009,09,03,02,55,15.60
2009,09,03,02,56,15.60
2009,09,03,02,57,15.60
2009,09,03,02,58,15.60
2009,09,03,02,59,15.60
2009,09,03,03,00,15.60
2009,09,03,03,01,15.60
2009,09,03,03,02,15.60
2009,09,03,03,03,15.70
2009,09,03,03,04,15.70
2009,09,03,03,05,15.70
2009,09,03,03,06,15.70
2009,09,03,03,07,15.70
2009,09,03,03,08,15.70
2009,09,03,03,09,15.70
2009,09,03,03,10,15.70
2009,09,03,03,11,15.70
2009,09,03,03,12,15.80
2009,09,03,03,13,15.80
2009,09,03,03,14,15.80
2009,09,03,03,15,15.80
2009,09,03,03,16,15.80
2009,09,03,03,17,15.80
2009,09,03,03,18,15.80
2009,09,03,03,19,15.80
2009,09,03,03,20,15.80
2009,09,03,03,21,15.80
2009,09,03,03,22,15.80
2009,09,03,03,23,15.90
2009,09,03,03,24,15.90
2009,09,03,03,25,16.00
2009,09,03,03,26,16.10
2009,09,03,03,27,16.10
2009,09,03,03,28,16.10
2009,09,03,03,29,16.20
2009,09,03,03,30,16.20
2009,09,03,03,31,16.20
2009,09,03,03,32,16.20
2009,09,03,03,33,16.20
2009,09,03,03,34,16.20
2009,09,03,03,35,16.10
2009,09,03,03,36,16.10
2009,09,03,03,37,16.00
2009,09,03,03,38,16.00
2009,09,03,03,39,15.90
2009,09,03,03,40,15.80
2009,09,03,03,41,15.70
2009,09,03,03,42,15.50
2009,09,03,03,43,15.40
2009,09,03,03,44,15.30
2009,09,03,03,45,15.20
2009,09,03,03,46,15.20
2009,09,03,03,47,15.10
2009,09,03,03,48,15.00
2009,09,03,03,49,15.00
2009,09,03,03,50,15.00
2009,09,03,03,51,15.00
2009,09,03,03,52,15.00
2009,09,03,03,53,15.00
2009,09,03,03,54,15.00
2009,09,03,03,55,15.00
2009,09,03,03,56,15.00
2009,09,03,03,57,15.00
2009,09,03,03,58,14.90
2009,09,03,03,59,14.80
2009,09,03,04,00,14.80
2009,09,03,04,01,14.70
2009,09,03,04,02,14.70
2009,09,03,04,03,14.70
2009,09,03,04,04,14.60
2009,09,03,04,05,14.60
2009,09,03,04,06,14.60
2009,09,03,04,07,14.50
2009,09,03,04,08,14.50
2009,09,03,04,09,14.50
2009,09,03,04,10,14.40
2009,09,03,04,11,14.40
2009,09,03,04,12,14.40
2009,09,03,04,13,14.40
2009,09,03,04,14,14.30
2009,09,03,04,15,14.30
2009,09,03,04,16,14.30
2009,09,03,04,17,14.30
2009,09,03,04,18,14.20
2009,09,03,04,19,14.20
2009,09,03,04,20,14.20
2009,09,03,04,21,14.20
2009,09,03,04,22,14.20
2009,09,03,04,23,14.20
2009,09,03,04,24,14.20
2009,09,03,04,25,14.20
2009,09,03,04,26,14.20
2009,09,03,04,27,14.20
2009,09,03,04,28,14.10
2009,09,03,04,29,14.10
2009,09,03,04,30,14.10
2009,09,03,04,31,14.10
2009,09,03,04,32,14.10
2009,09,03,04,33,14.10
2009,09,03,04,34,14.10
2009,09,03,04,35,14.10
2009,09,03,04,36,14.10
2009,09,03,04,37,14.10
2009,09,03,04,38,14.00
2009,09,03,04,39,14.00
2009,09,03,04,40,14.00
2009,09,03,04,41,13.90
2009,09,03,04,42,13.90
2009,09,03,04,43,13.90
2009,09,03,04,44,13.80
2009,09,03,04,45,13.80
2009,09,03,04,46,13.80
2009,09,03,04,47,13.80
2009,09,03,04,48,13.80
2009,09,03,04,49,13.70
2009,09,03,04,50,13.70
2009,09,03,04,51,13.70
2009,09,03,04,52,13.60
2009,09,03,04,53,13.60
2009,09,03,04,54,13.60
2009,09,03,04,55,13.60
2009,09,03,04,56,13.60
2009,09,03,04,57,13.60
2009,09,03,04,58,13.60
2009,09,03,04,59,13.60
2009,09,03,05,00,13.60
2009,09,03,05,01,13.60
2009,09,03,05,02,13.60
2009,09,03,05,03,13.60
2009,09,03,05,04,13.60
2009,09,03,05,05,13.60
2009,09,03,05,06,13.60
2009,09,03,05,07,13.50
2009,09,03,05,08,13.50
2009,09,03,05,09,13.40
2009,09,03,05,10,13.40
2009,09,03,05,11,13.40
2009,09,03,05,12,13.40
2009,09,03,05,13,13.40
2009,09,03,05,14,13.40
2009,09,03,05,15,13.40
2009,09,03,05,16,13.40
2009,09,03,05,17,13.40
2009,09,03,05,18,13.40
2009,09,03,05,19,13.40
2009,09,03,05,20,13.40
2009,09,03,05,21,13.40
2009,09,03,05,22,13.30
2009,09,03,05,23,13.30
2009,09,03,05,24,13.30
2009,09,03,05,25,13.30
2009,09,03,05,26,13.30
2009,09,03,05,27,13.30
2009,09,03,05,28,13.30
2009,09,03,05,29,13.30
2009,09,03,05,30,13.20
2009,09,03,05,31,13.20
2009,09,03,05,32,13.20
2009,09,03,05,33,13.20
2009,09,03,05,34,13.20
2009,09,03,05,35,13.20
2009,09,03,05,36,13.20
2009,09,03,05,37,13.20
2009,09,03,05,38,13.10
2009,09,03,05,39,13.10
2009,09,03,05,40,13.10
2009,09,03,05,41,13.10
2009,09,03,05,42,13.10
2009,09,03,05,43,13.10
2009,09,03,05,44,13.10
2009,09,03,05,45,13.10
2009,09,03,05,46,13.10
2009,09,03,05,47,13.10
2009,09,03,05,48,13.10
2009,09,03,05,49,13.10
2009,09,03,05,50,13.10
2009,09,03,05,51,13.10
2009,09,03,05,52,13.10
2009,09,03,05,53,13.10
2009,09,03,05,54,13.10
2009,09,03,05,55,13.10
2009,09,03,05,56,13.10
2009,09,03,05,57,13.10
2009,09,03,05,58,13.10
2009,09,03,05,59,13.10
2009,09,03,06,00,13.10
2009,09,03,06,01,13.10
2009,09,03,06,02,13.10
2009,09,03,06,03,13.10
2009,09,03,06,04,13.10
2009,09,03,06,05,13.10
2009,09,03,06,06,13.10
2009,09,03,06,07,13.10
2009,09,03,06,08,13.10
2009,09,03,06,09,13.10
2009,09,03,06,10,13.00
2009,09,03,06,11,13.00
2009,09,03,06,12,13.00
2009,09,03,06,13,13.00
2009,09,03,06,14,13.00
2009,09,03,06,15,13.00
2009,09,03,06,16,13.00
2009,09,03,06,17,12.90
2009,09,03,06,18,12.90
2009,09,03,06,19,12.90
2009,09,03,06,20,12.90
2009,09,03,06,21,12.90
2009,09,03,06,22,12.90
2009,09,03,06,23,12.80
2009,09,03,06,24,12.80
2009,09,03,06,25,12.80
2009,09,03,06,26,12.80
2009,09,03,06,27,12.80
2009,09,03,06,28,12.80
2009,09,03,06,29,12.80
2009,09,03,06,30,12.80
2009,09,03,06,31,12.80
2009,09,03,06,32,12.80
2009,09,03,06,33,12.70
2009,09,03,06,34,12.70
2009,09,03,06,35,12.70
2009,09,03,06,36,12.70
2009,09,03,06,37,12.70
2009,09,03,06,38,12.70
2009,09,03,06,39,12.70
2009,09,03,06,40,12.70
2009,09,03,06,41,12.70
2009,09,03,06,42,12.70
2009,09,03,06,43,12.70
2009,09,03,06,44,12.70
2009,09,03,06,45,12.70
2009,09,03,06,46,12.70
2009,09,03,06,47,12.60
2009,09,03,06,48,12.60
2009,09,03,06,49,12.60
2009,09,03,06,50,12.60
2009,09,03,06,51,12.60
2009,09,03,06,52,12.60
2009,09,03,06,53,12.60
2009,09,03,06,54,12.60
2009,09,03,06,55,12.60
2009,09,03,06,56,12.60
2009,09,03,06,57,12.60
2009,09,03,06,58,12.60
2009,09,03,06,59,12.60
2009,09,03,07,00,12.60
2009,09,03,07,01,12.60
2009,09,03,07,02,12.60
2009,09,03,07,03,12.60
2009,09,03,07,04,12.60
2009,09,03,07,05,12.60
2009,09,03,07,06,12.60
2009,09,03,07,07,12.60
2009,09,03,07,08,12.60
2009,09,03,07,09,12.60
2009,09,03,07,10,12.60
2009,09,03,07,11,12.60
2009,09,03,07,12,12.60
2009,09,03,07,13,12.60
2009,09,03,07,14,12.60
2009,09,03,07,15,12.70
2009,09,03,07,16,12.70
2009,09,03,07,17,12.70
2009,09,03,07,18,12.70
2009,09,03,07,19,12.70
2009,09,03,07,20,12.70
2009,09,03,07,21,12.70
2009,09,03,07,22,12.70
2009,09,03,07,23,12.70
2009,09,03,07,24,12.70
2009,09,03,07,25,12.70
2009,09,03,07,26,12.80
2009,09,03,07,27,12.80
2009,09,03,07,28,12.80
2009,09,03,07,29,12.80
2009,09,03,07,30,12.80
2009,09,03,07,31,12.80
2009,09,03,07,32,12.90
2009,09,03,07,33,12.90
2009,09,03,07,34,12.90
2009,09,03,07,35,12.90
2009,09,03,07,36,12.90
2009,09,03,07,37,12.90
2009,09,03,07,38,13.00
2009,09,03,07,39,13.00
2009,09,03,07,40,13.00
2009,09,03,07,41,13.00
2009,09,03,07,42,13.10
2009,09,03,07,43,13.10
2009,09,03,07,44,13.10
2009,09,03,07,45,13.10
2009,09,03,07,46,13.10
2009,09,03,07,47,13.20
2009,09,03,07,48,13.20
2009,09,03,07,49,13.20
2009,09,03,07,50,13.20
2009,09,03,07,51,13.20
2009,09,03,07,52,13.20
2009,09,03,07,53,13.20
2009,09,03,07,54,13.20
2009,09,03,07,55,13.30
2009,09,03,07,56,13.30
2009,09,03,07,57,13.30
2009,09,03,07,58,13.30
2009,09,03,07,59,13.30
2009,09,03,08,00,13.30
2009,09,03,08,01,13.30
2009,09,03,08,02,13.30
2009,09,03,08,03,13.30
2009,09,03,08,04,13.30
2009,09,03,08,05,13.30
2009,09,03,08,06,13.30
2009,09,03,08,07,13.30
2009,09,03,08,08,13.40
2009,09,03,08,09,13.40
2009,09,03,08,10,13.40
2009,09,03,08,11,13.40
2009,09,03,08,12,13.40
2009,09,03,08,13,13.40
2009,09,03,08,14,13.40
2009,09,03,08,15,13.50
2009,09,03,08,16,13.50
2009,09,03,08,17,13.50
2009,09,03,08,18,13.50
2009,09,03,08,19,13.60
2009,09,03,08,20,13.60
2009,09,03,08,21,13.60
2009,09,03,08,22,13.60
2009,09,03,08,23,13.70
2009,09,03,08,24,13.70
2009,09,03,08,25,13.70
2009,09,03,08,26,13.80
2009,09,03,08,27,13.80
2009,09,03,08,28,13.80
2009,09,03,08,29,13.80
2009,09,03,08,30,13.90
2009,09,03,08,31,13.90
2009,09,03,08,32,13.90
2009,09,03,08,33,14.00
2009,09,03,08,34,14.00
2009,09,03,08,35,14.10
2009,09,03,08,36,14.10
2009,09,03,08,37,14.20
2009,09,03,08,38,14.20
2009,09,03,08,39,14.20
2009,09,03,08,40,14.30
2009,09,03,08,41,14.30
2009,09,03,08,42,14.40
2009,09,03,08,43,14.40
2009,09,03,08,44,14.40
2009,09,03,08,45,14.50
2009,09,03,08,46,14.50
2009,09,03,08,47,14.50
2009,09,03,08,48,14.60
2009,09,03,08,49,14.60
2009,09,03,08,50,14.70
2009,09,03,08,51,14.70
2009,09,03,08,52,14.70
2009,09,03,08,53,14.70
2009,09,03,08,54,14.80
2009,09,03,08,55,14.80
2009,09,03,08,56,14.80
2009,09,03,08,57,14.80
2009,09,03,08,58,14.80
2009,09,03,08,59,14.80
2009,09,03,09,00,14.90
2009,09,03,09,01,14.90
2009,09,03,09,02,14.90
2009,09,03,09,03,15.00
2009,09,03,09,04,15.00
2009,09,03,09,05,15.00
2009,09,03,09,06,15.00
2009,09,03,09,07,15.00
2009,09,03,09,08,15.00
2009,09,03,09,09,15.00
2009,09,03,09,10,15.00
2009,09,03,09,11,15.00
2009,09,03,09,12,15.00
2009,09,03,09,13,15.00
2009,09,03,09,14,15.10
2009,09,03,09,15,15.20
2009,09,03,09,16,15.20
2009,09,03,09,17,15.30
2009,09,03,09,18,15.30
2009,09,03,09,19,15.40
2009,09,03,09,20,15.40
2009,09,03,09,21,15.50
2009,09,03,09,22,15.50
2009,09,03,09,23,15.60
2009,09,03,09,24,15.60
2009,09,03,09,25,15.60
2009,09,03,09,26,15.70
2009,09,03,09,27,15.70
2009,09,03,09,28,15.70
2009,09,03,09,29,15.80
2009,09,03,09,30,15.80
2009,09,03,09,31,15.80
2009,09,03,09,32,15.90
2009,09,03,09,33,16.00
2009,09,03,09,34,16.10
2009,09,03,09,35,16.20
2009,09,03,09,36,16.20
2009,09,03,09,37,16.30
2009,09,03,09,38,16.40
2009,09,03,09,39,16.50
2009,09,03,09,40,16.60
2009,09,03,09,41,16.70
2009,09,03,09,42,16.70
2009,09,03,09,43,16.80
2009,09,03,09,44,16.90
2009,09,03,09,45,17.00
2009,09,03,09,46,17.00
2009,09,03,09,47,17.10
2009,09,03,09,48,17.10
2009,09,03,09,49,17.20
2009,09,03,09,50,17.20
2009,09,03,09,51,17.30
2009,09,03,09,52,17.30
2009,09,03,09,53,17.40
2009,09,03,09,54,17.40
2009,09,03,09,55,17.50
2009,09,03,09,56,17.50
2009,09,03,09,57,17.60
2009,09,03,09,58,17.60
2009,09,03,09,59,17.60
2009,09,03,10,00,17.70
2009,09,03,10,01,17.70
2009,09,03,10,02,17.70
2009,09,03,10,03,17.70
2009,09,03,10,04,17.70
2009,09,03,10,05,17.70
2009,09,03,10,06,17.70
2009,09,03,10,07,17.60
2009,09,03,10,08,17.60
2009,09,03,10,09,17.60
2009,09,03,10,10,17.50
2009,09,03,10,11,17.50
2009,09,03,10,12,17.50
2009,09,03,10,13,17.50
2009,09,03,10,14,17.40
2009,09,03,10,15,17.40
2009,09,03,10,16,17.40
2009,09,03,10,17,17.40
2009,09,03,10,18,17.40
2009,09,03,10,19,17.30
2009,09,03,10,20,17.30
2009,09,03,10,21,17.30
2009,09,03,10,22,17.30
2009,09,03,10,23,17.40
2009,09,03,10,24,17.40
2009,09,03,10,25,17.40
2009,09,03,10,26,17.50
2009,09,03,10,27,17.60
2009,09,03,10,28,17.60
2009,09,03,10,29,17.70
2009,09,03,10,30,17.80
2009,09,03,10,31,17.90
2009,09,03,10,32,18.00
2009,09,03,10,33,18.10
2009,09,03,10,34,18.20
2009,09,03,10,35,18.20
2009,09,03,10,36,18.30
2009,09,03,10,37,18.30
2009,09,03,10,38,18.30
2009,09,03,10,39,18.30
2009,09,03,10,40,18.40
2009,09,03,10,41,18.40
2009,09,03,10,42,18.40
2009,09,03,10,43,18.40
2009,09,03,10,44,18.40
2009,09,03,10,45,18.40
2009,09,03,10,46,18.50
2009,09,03,10,47,18.60
2009,09,03,10,48,18.60
2009,09,03,10,49,18.60
2009,09,03,10,50,18.60
2009,09,03,10,51,18.60
2009,09,03,10,52,18.60
2009,09,03,10,53,18.60
2009,09,03,10,54,18.60
2009,09,03,10,55,18.60
2009,09,03,10,56,18.60
2009,09,03,10,57,18.60
2009,09,03,10,58,18.60
2009,09,03,10,59,18.50
2009,09,03,11,00,18.50
2009,09,03,11,01,18.40
2009,09,03,11,02,18.30
2009,09,03,11,03,18.20
2009,09,03,11,04,18.10
2009,09,03,11,05,18.10
2009,09,03,11,06,18.00
2009,09,03,11,07,18.00
2009,09,03,11,08,18.00
2009,09,03,11,09,17.90
2009,09,03,11,10,17.80
2009,09,03,11,11,17.80
2009,09,03,11,12,17.70
2009,09,03,11,13,17.70
2009,09,03,11,14,17.70
2009,09,03,11,15,17.70
2009,09,03,11,16,17.60
2009,09,03,11,17,17.60
2009,09,03,11,18,17.50
2009,09,03,11,19,17.50
2009,09,03,11,20,17.40
2009,09,03,11,21,17.40
2009,09,03,11,22,17.40
2009,09,03,11,23,17.40
2009,09,03,11,24,17.40
2009,09,03,11,25,17.40
2009,09,03,11,26,17.40
2009,09,03,11,27,17.40
2009,09,03,11,28,17.40
2009,09,03,11,29,17.40
2009,09,03,11,30,17.40
2009,09,03,11,31,17.40
2009,09,03,11,32,17.40
2009,09,03,11,33,17.40
2009,09,03,11,34,17.40
2009,09,03,11,35,17.40
2009,09,03,11,36,17.40
2009,09,03,11,37,17.40
2009,09,03,11,38,17.30
2009,09,03,11,39,17.40
2009,09,03,11,40,17.40
2009,09,03,11,41,17.40
2009,09,03,11,42,17.40
2009,09,03,11,43,17.40
2009,09,03,11,44,17.40
2009,09,03,11,45,17.40
2009,09,03,11,46,17.40
2009,09,03,11,47,17.40
2009,09,03,11,48,17.40
2009,09,03,11,49,17.40
2009,09,03,11,50,17.40
2009,09,03,11,51,17.40
2009,09,03,11,52,17.40
2009,09,03,11,53,17.40
2009,09,03,11,54,17.40
2009,09,03,11,55,17.40
2009,09,03,11,56,17.40
2009,09,03,11,57,17.40
2009,09,03,11,58,17.40
2009,09,03,11,59,17.40
2009,09,03,12,00,17.40
2009,09,03,12,01,17.40
2009,09,03,12,02,17.50
2009,09,03,12,03,17.50
2009,09,03,12,04,17.50
2009,09,03,12,05,17.50
2009,09,03,12,06,17.50
2009,09,03,12,07,17.50
2009,09,03,12,08,17.50
2009,09,03,12,09,17.60
2009,09,03,12,10,17.60
2009,09,03,12,11,17.60
2009,09,03,12,12,17.60
2009,09,03,12,13,17.70
2009,09,03,12,14,17.70
2009,09,03,12,15,17.70
2009,09,03,12,16,17.70
2009,09,03,12,17,17.70
2009,09,03,12,18,17.80
2009,09,03,12,19,17.80
2009,09,03,12,20,17.80
2009,09,03,12,21,17.80
2009,09,03,12,22,17.80
2009,09,03,12,23,17.90
2009,09,03,12,24,17.90
2009,09,03,12,25,17.90
2009,09,03,12,26,18.00
2009,09,03,12,27,18.00
2009,09,03,12,28,18.10
2009,09,03,12,29,18.10
2009,09,03,12,30,18.20
2009,09,03,12,31,18.20
2009,09,03,12,32,18.30
2009,09,03,12,33,18.30
2009,09,03,12,34,18.40
2009,09,03,12,35,18.40
2009,09,03,12,36,18.50
2009,09,03,12,37,18.60
2009,09,03,12,38,18.70
2009,09,03,12,39,18.80
2009,09,03,12,40,18.90
2009,09,03,12,41,19.10
2009,09,03,12,42,19.20
2009,09,03,12,43,19.40
2009,09,03,12,44,19.50
2009,09,03,12,45,19.70
2009,09,03,12,46,19.80
2009,09,03,12,47,19.90
2009,09,03,12,48,19.90
2009,09,03,12,49,20.00
2009,09,03,12,50,20.10
2009,09,03,12,51,20.20
2009,09,03,12,52,20.20
2009,09,03,12,53,20.20
2009,09,03,12,54,20.30
2009,09,03,12,55,20.30
2009,09,03,12,56,20.30
2009,09,03,12,57,20.40
2009,09,03,12,58,20.40
2009,09,03,12,59,20.50
2009,09,03,13,00,20.40
2009,09,03,13,01,20.40
2009,09,03,13,02,20.40
2009,09,03,13,03,20.40
2009,09,03,13,04,20.40
2009,09,03,13,05,20.40
2009,09,03,13,06,20.40
2009,09,03,13,07,20.30
2009,09,03,13,08,20.40
2009,09,03,13,09,20.40
2009,09,03,13,10,20.40
2009,09,03,13,11,20.50
2009,09,03,13,12,20.60
2009,09,03,13,13,20.70
2009,09,03,13,14,20.80
2009,09,03,13,15,20.80
2009,09,03,13,16,20.80
2009,09,03,13,17,20.80
2009,09,03,13,18,20.80
2009,09,03,13,19,20.70
2009,09,03,13,20,20.60
2009,09,03,13,21,20.50
2009,09,03,13,22,20.50
2009,09,03,13,23,20.50
2009,09,03,13,24,20.50
2009,09,03,13,25,20.50
2009,09,03,13,26,20.40
2009,09,03,13,27,20.40
2009,09,03,13,28,20.40
2009,09,03,13,29,20.40
2009,09,03,13,30,20.30
2009,09,03,13,31,20.30
2009,09,03,13,32,20.40
2009,09,03,13,33,20.40
2009,09,03,13,34,20.50
2009,09,03,13,35,20.50
2009,09,03,13,36,20.60
2009,09,03,13,37,20.60
2009,09,03,13,38,20.60
2009,09,03,13,39,20.60
2009,09,03,13,40,20.60
2009,09,03,13,41,20.60
2009,09,03,13,42,20.70
2009,09,03,13,43,20.70
2009,09,03,13,44,20.80
2009,09,03,13,45,20.90
2009,09,03,13,46,21.00
2009,09,03,13,47,21.10
2009,09,03,13,48,21.20
2009,09,03,13,49,21.30
2009,09,03,13,50,21.50
2009,09,03,13,51,21.50
2009,09,03,13,52,21.60
2009,09,03,13,53,21.70
2009,09,03,13,54,21.70
2009,09,03,13,55,21.60
2009,09,03,13,56,21.50
2009,09,03,13,57,21.50
2009,09,03,13,58,21.30
2009,09,03,13,59,21.30
2009,09,03,14,00,21.30
2009,09,03,14,01,21.30
2009,09,03,14,02,21.30
2009,09,03,14,03,21.40
2009,09,03,14,04,21.40
2009,09,03,14,05,21.40
2009,09,03,14,06,21.50
2009,09,03,14,07,21.50
2009,09,03,14,08,21.60
2009,09,03,14,09,21.70
2009,09,03,14,10,21.70
2009,09,03,14,11,21.70
2009,09,03,14,12,21.70
2009,09,03,14,13,21.70
2009,09,03,14,14,21.70
2009,09,03,14,15,21.70
2009,09,03,14,16,21.70
2009,09,03,14,17,21.80
2009,09,03,14,18,21.80
2009,09,03,14,19,21.80
2009,09,03,14,20,21.80
2009,09,03,14,21,21.80
2009,09,03,14,22,21.70
2009,09,03,14,23,21.70
2009,09,03,14,24,21.80
2009,09,03,14,25,21.80
2009,09,03,14,26,21.80
2009,09,03,14,27,21.90
2009,09,03,14,28,21.90
2009,09,03,14,29,21.90
2009,09,03,14,30,21.90
2009,09,03,14,31,22.00
2009,09,03,14,32,22.00
2009,09,03,14,33,22.10
2009,09,03,14,34,22.10
2009,09,03,14,35,22.20
2009,09,03,14,36,22.20
2009,09,03,14,37,22.20
2009,09,03,14,38,22.10
2009,09,03,14,39,22.00
2009,09,03,14,40,21.90
2009,09,03,14,41,21.80
2009,09,03,14,42,21.70
2009,09,03,14,43,21.60
2009,09,03,14,44,21.50
2009,09,03,14,45,21.30
2009,09,03,14,46,21.20
2009,09,03,14,47,21.10
2009,09,03,14,48,21.00
2009,09,03,14,49,20.90
2009,09,03,14,50,20.90
2009,09,03,14,51,20.80
2009,09,03,14,52,20.80
2009,09,03,14,53,20.70
2009,09,03,14,54,20.60
2009,09,03,14,55,20.60
2009,09,03,14,56,20.50
2009,09,03,14,57,20.50
2009,09,03,14,58,20.40
2009,09,03,14,59,20.30
2009,09,03,15,00,20.30
2009,09,03,15,01,20.30
2009,09,03,15,02,20.30
2009,09,03,15,03,20.30
2009,09,03,15,04,20.30
2009,09,03,15,05,20.30
2009,09,03,15,06,20.30
2009,09,03,15,07,20.30
2009,09,03,15,08,20.30
2009,09,03,15,09,20.20
2009,09,03,15,10,20.20
2009,09,03,15,11,20.20
2009,09,03,15,12,20.20
2009,09,03,15,13,20.20
2009,09,03,15,14,20.20
2009,09,03,15,15,20.10
2009,09,03,15,16,20.10
2009,09,03,15,17,20.10
2009,09,03,15,18,20.10
2009,09,03,15,19,20.20
2009,09,03,15,20,20.20
2009,09,03,15,21,20.30
2009,09,03,15,22,20.30
2009,09,03,15,23,20.30
2009,09,03,15,24,20.30
2009,09,03,15,25,20.30
2009,09,03,15,26,20.30
2009,09,03,15,27,20.30
2009,09,03,15,28,20.30
2009,09,03,15,29,20.20
2009,09,03,15,30,20.20
2009,09,03,15,31,20.10
2009,09,03,15,32,20.10
2009,09,03,15,33,20.00
2009,09,03,15,34,20.00
2009,09,03,15,35,19.90
2009,09,03,15,36,19.90
2009,09,03,15,37,19.90
2009,09,03,15,38,19.90
2009,09,03,15,39,19.90
2009,09,03,15,40,19.90
2009,09,03,15,41,20.00
2009,09,03,15,42,20.00
2009,09,03,15,43,20.10
2009,09,03,15,44,20.20
2009,09,03,15,45,20.30
2009,09,03,15,46,20.40
2009,09,03,15,47,20.40
2009,09,03,15,48,20.40
2009,09,03,15,49,20.40
2009,09,03,15,50,20.40
2009,09,03,15,51,20.40
2009,09,03,15,52,20.40
2009,09,03,15,53,20.40
2009,09,03,15,54,20.50
2009,09,03,15,55,20.50
2009,09,03,15,56,20.60
2009,09,03,15,57,20.60
2009,09,03,15,58,20.60
2009,09,03,15,59,20.60
2009,09,03,16,00,20.50
2009,09,03,16,01,20.50
2009,09,03,16,02,20.40
2009,09,03,16,03,20.40
2009,09,03,16,04,20.40
2009,09,03,16,05,20.50
2009,09,03,16,06,20.50
2009,09,03,16,07,20.50
2009,09,03,16,08,20.50
2009,09,03,16,09,20.50
2009,09,03,16,10,20.50
2009,09,03,16,11,20.50
2009,09,03,16,12,20.50
2009,09,03,16,13,20.50
2009,09,03,16,14,20.40
2009,09,03,16,15,20.40
2009,09,03,16,16,20.30
2009,09,03,16,17,20.20
2009,09,03,16,18,20.10
2009,09,03,16,19,20.10
2009,09,03,16,20,20.10
2009,09,03,16,21,20.10
2009,09,03,16,22,20.10
2009,09,03,16,23,20.20
2009,09,03,16,24,20.20
2009,09,03,16,25,20.20
2009,09,03,16,26,20.20
2009,09,03,16,27,20.30
2009,09,03,16,28,20.30
2009,09,03,16,29,20.30
2009,09,03,16,30,20.40
2009,09,03,16,31,20.50
2009,09,03,16,32,20.60
2009,09,03,16,33,20.70
2009,09,03,16,34,20.80
2009,09,03,16,35,20.70
2009,09,03,16,36,20.70
2009,09,03,16,37,20.70
2009,09,03,16,38,20.70
2009,09,03,16,39,20.80
2009,09,03,16,40,20.80
2009,09,03,16,41,20.70
2009,09,03,16,42,20.70
2009,09,03,16,43,20.60
2009,09,03,16,44,20.40
2009,09,03,16,45,20.30
2009,09,03,16,46,20.30
2009,09,03,16,47,20.10
2009,09,03,16,48,20.10
2009,09,03,16,49,20.00
2009,09,03,16,50,20.00
2009,09,03,16,51,19.90
2009,09,03,16,52,19.90
2009,09,03,16,53,19.80
2009,09,03,16,54,19.80
2009,09,03,16,55,19.70
2009,09,03,16,56,19.70
2009,09,03,16,57,19.70
2009,09,03,16,58,19.60
2009,09,03,16,59,19.60
2009,09,03,17,00,19.60
2009,09,03,17,01,19.60
2009,09,03,17,02,19.60
2009,09,03,17,03,19.60
2009,09,03,17,04,19.60
2009,09,03,17,05,19.60
2009,09,03,17,06,19.50
2009,09,03,17,07,19.50
2009,09,03,17,08,19.40
2009,09,03,17,09,19.40
2009,09,03,17,10,19.40
2009,09,03,17,11,19.30
2009,09,03,17,12,19.30
2009,09,03,17,13,19.30
2009,09,03,17,14,19.20
2009,09,03,17,15,19.20
2009,09,03,17,16,19.10
2009,09,03,17,17,19.10
2009,09,03,17,18,19.10
2009,09,03,17,19,19.00
2009,09,03,17,20,19.00
2009,09,03,17,21,18.90
2009,09,03,17,22,18.90
2009,09,03,17,23,18.90